Home   Weather   Warren   Past weeks

Flag for USA Past Weather in Warren, Michigan, USA — Yesterday and Last 2 Weeks

50 °F


Feels Like: 45 °F
Forecast: 43 / 51 °F
Wind: 13 mph from Northwest

Location: Detroit City Airport

Current Time: Oct 24, 2016 at 12:10:06 PM

Latest Report: Oct 24, 2016 at 11:53 AM

Visibility: 10 mi

Pressure: 30.27 "Hg

Humidity: 57%

Dew Point: 35 °F

Location of WarrenLocation

Past Weather in Warren — Graph


Warren Temperature Yesterday

Maximum temperature yesterday: 63 °F (at 2:53 PM)
Minimum temperature yesterday: 46 °F (at 6:53 AM)
Average temperature yesterday: 54 °F

High & Low Weather Summary for the Past Weeks

High79 °F (Oct 17, 2:53 PM)100% (Oct 17, 1:53 AM)30.49 "Hg (Oct 17, 1:53 AM)
Low39 °F (Oct 10, 6:53 AM)45% (Oct 19, 4:53 PM)29.59 "Hg (Oct 18, 5:53 AM)
Average57 °F76%30.07 "Hg
* Reported Oct 9 10:53 AM — Oct 24 10:53 AM, Warren, Weather by CustomWeather, © 2016

Note: Actual official high and low records may vary slightly from our data, if they occured in-between our weather recording intervals... More about our weather records


Warren Weather History for the Previous 24 Hours

Scroll right to see more
Time TempWeatherWind HumidityBarometerVisibility
10:53 AM
Mon, Oct 24
49 °FOvercast.10 mph64%30.25 "Hg10 mi
9:53 AM48 °FPassing clouds.13 mph66%30.23 "Hg10 mi
8:53 AM47 °FSunny.6 mph74%30.20 "Hg10 mi
7:53 AM46 °FClear.7 mph73%30.17 "Hg10 mi
6:53 AM47 °FPassing clouds.7 mph71%30.15 "Hg10 mi
5:53 AM49 °FOvercast.14 mph69%30.12 "Hg10 mi
4:53 AM50 °FOvercast.14 mph63%30.09 "Hg10 mi
3:53 AM50 °FMostly cloudy.10 mph66%30.08 "Hg10 mi
2:53 AM51 °FPassing clouds.8 mph74%30.05 "Hg10 mi
1:53 AM51 °FPassing clouds.6 mph83%30.01 "Hg10 mi
12:53 AM51 °FClear.7 mph80%29.98 "Hg10 mi
11:53 PM
Sun, Oct 23
53 °FPassing clouds.14 mph83%29.95 "Hg10 mi
10:53 PM55 °FPassing clouds.8 mph77%29.89 "Hg10 mi
9:53 PM57 °FPassing clouds.13 mph81%29.85 "Hg10 mi
8:53 PM58 °FPassing clouds.8 mph78%29.81 "Hg10 mi
7:53 PM61 °FPassing clouds.No wind67%29.80 "Hg10 mi
6:53 PM61 °FOvercast.5 mph67%29.80 "Hg10 mi
5:53 PM61 °FSunny.7 mph65%29.80 "Hg10 mi
4:53 PM63 °FScattered clouds.10 mph60%29.83 "Hg10 mi
3:53 PM63 °FSunny.9 mph60%29.85 "Hg10 mi
2:53 PM63 °FSunny.12 mph52%29.89 "Hg10 mi
1:53 PM60 °FSunny.12 mph58%29.92 "Hg10 mi
12:53 PM59 °FSunny.8 mph60%29.95 "Hg10 mi
Weather by CustomWeather, © 2016

See weather overviewHow to use our weather pages